Regional Weather Roundup
Issued by NWS

Home | Current Version | Previous Version | Graphics & Text | Print | Product List | Glossary On
Versions: 1 2 3 4 5 6 7 8 9 10 11 12 13 14 15 16 17 18 19 20 21 22 23 24 25 26 27 28 29 30 31 32 33 34 35 36 37 38 39 40 41 42 43 44 45 46 47 48 49 50
000
ASUS45 KTFX 010119
RWRMT
MONTANA HOURLY WEATHER ROUNDUP
NATIONAL WEATHER SERVICE GREAT FALLS MT
719 PM MDT FRI OCT 31 2014

NOTE: "FAIR" INDICATES FEW OR NO CLOUDS BELOW 12000 FEET WITH NO
SIGNIFICANT WEATHER AND/OR OBSTRUCTIONS TO VISIBILITY.

* THESE STATIONS ARE NOT UNDER NWS QUALITY CONTROL. THEY DO NOT
   REPORT WEATHER SUCH AS PRECIPITATION OR FOG.

MTZ001>007-043-010200-
WEST OF THE DIVIDE
CITY           SKY/WX    TMP DP  RH WIND       PRES   REMARKS
KALISPELL      CLOUDY    46  43  89 SE3       29.77R
MISSOULA       PTCLDY    54  41  62 CALM      29.76S
BUTTE          CLOUDY    54  30  40 S6        29.82S
MULLAN PASS    CLOUDY    43  36  76 VRB5      29.84S
* ESSEX        N/A       44  42  93 S2         N/A
* LINCOLN      N/A       57  32  39 SW3G10     N/A
* LOOKOUT PASS N/A       50  37  61 NE6        N/A
* POLSON       N/A       43  42  96 S1         N/A
* RONAN APT    PTCLDY    48  45  89 N/A        N/A
* SEELEY LAKE  N/A       51  41  69 NE2        N/A
* THOMP F APT  PTCLDY    52  27  38 N/A        N/A
* YAAK HILL    N/A       48  41  77 N/A        N/A
$$

MTZ008-052>055-010200-
SOUTHWEST MONTANA
CITY           SKY/WX    TMP DP  RH WIND       PRES   REMARKS
BOZEMAN        CLOUDY    63  25  24 SW12      29.79S
DILLON         CLOUDY    63  21  20 S20G29    29.79S
W YELLOWSTONE  CLOUDY    45  25  45 SE7       29.94S
* THREE FORKS  CLOUDY    63  41  45 S6         N/A
* BOULDER HILL N/A       52  24  34 S2         N/A
* MONIDA PASS  N/A       50  24  36 S9         N/A
* RAYNOLDS PAS N/A       49  34  56 S7         N/A
* WHITEHALL    N/A       58  33  39 N3         N/A
* WISE RIVER   N/A       55  30  39 SW5        N/A
$$

MTZ009>010-012-014-046-048-049-054-010200-
EAST SLOPES AND CENTRAL MONTANA
CITY           SKY/WX    TMP DP  RH WIND       PRES   REMARKS
CUT BANK       CLEAR     48  36  63 CALM      29.73R
GREAT FALLS    CLOUDY    52  32  47 SW8       29.72S
HELENA         CLOUDY    52  37  57 CALM      29.75S
MALMSTROM AFB  CLOUDY    54  36  51 SW10      29.73S
* CONRAD       PTCLDY    52  39  61 N/A        N/A
* DEARBORN     N/A       58  37  46 N/A        N/A
* EAST GLACIER N/A       55  28  35 W18G27     N/A
* MONARCH      N/A       54  18  24 S2         N/A
* SAINT MARY   N/A       50  28  43 SE4G10     N/A
* SWEET GRASS  N/A       50  35  57 S14        N/A
$$

MTZ011-013-016-021-035-040-045-047-050-051-010200-
NORTH CENTRAL MONTANA
CITY           SKY/WX    TMP DP  RH WIND       PRES   REMARKS
HAVRE          CLOUDY    46  36  68 E5        29.71S
LEWISTOWN      CLOUDY    57  32  39 SW8       29.76R
* N BAR RANCH  CLEAR     57  30  36 CALM      29.80S
* FORT BENTON  CLOUDY    46  37  71 N5        29.71S
* CHESTER      N/A       54  37  53 SE3        N/A
* DENTON       N/A       56  32  40 NE1        N/A
* GEYSER       N/A       55  26  33 SW8        N/A
* JUDITH GAP   N/A       49  29  46 S6         N/A
* LOMA         N/A       46  37  71 NE12       N/A
$$

MTZ017>020-022>027-061-062-010200-
NORTHEAST MONTANA
CITY           SKY/WX    TMP DP  RH WIND       PRES   REMARKS
GLASGOW        PTCLDY    46  32  58 E18       29.78F
GLENDIVE       MOCLDY    46  30  54 SE14G20   29.89F
JORDAN         CLEAR     46  34  63 E9        29.78F
SIDNEY         CLOUDY    45  25  45 SE12      29.93F
WOLF POINT     MOCLDY    46  34  63 E12       29.84F
* BEAVER HILL  N/A       42  29  60 SE19G24    N/A
* CIRCLE       N/A       51  36  57 E2         N/A
* LINDSAY DVD  N/A       43  30  60 SE17       N/A
* NAVAJO       N/A       43  29  58 SE14G20    N/A
* PLENTYWOOD A N/A       40 N/A N/A N/A        N/A
* SACO         N/A       47  35  63 E12        N/A
$$

MTZ028>042-056>058-010200-
SOUTHCENTRAL AND SOUTHEAST MONTANA
CITY           SKY/WX    TMP DP  RH WIND       PRES   REMARKS
BAKER          MOCLDY    45  28  51 SE21G29   29.92S
BILLINGS       MOCLDY    54  32  43 E5        29.79F
LIVINGSTON     CLOUDY    64  21  19 SW5       29.79S
MILES CITY     CLEAR     50  34  54 SE15      29.82F
* LAUREL APT   MOCLDY    54  28  37 N/A        N/A
* ROUNDUP APT  PTCLDY    55  28  35 S5         N/A
* ALZADA       N/A       45  32  60 NE9        N/A
* HYSHAM       N/A       54  31  42 E2         N/A
* LAME DEER    N/A       51  31  46 SE7        N/A
* REED POINT   N/A       50  30  46 E1         N/A
* ROSCOE HILL  N/A       56  25  30 SW3        N/A
$$

REGIONAL REPORTS...DAKOTAS
CITY           SKY/WX    TMP DP  RH WIND       PRES   REMARKS
WILLISTON      PTCLDY    43  19  38 S10G21    29.95F
DICKINSON      MOCLDY    37  16  42 SE21G32   29.99F WCI  26
BEACH          N/A       39  25  57 SE20G28   29.93S WCI  29
CROSBY         CLEAR     37  21  52 SE18      29.96F WCI  27
TIOGA          CLEAR     37  18  46 S17G25    30.02F WCI  27
BISMARCK       CLEAR     34  16  48 SE12G22   30.18F WCI  25
GRAND FORKS    PTCLDY    30  19  64 SE8       30.36F WCI  22
FARGO          CLEAR     34  19  54 SE10      30.40F WCI  26
BUFFALO SD     MOCLDY    45  25  45 SE21G28   29.89F
RAPID CITY     PTCLDY    45  28  51 S21       30.04F
$$

REGIONAL REPORTS...WYOMING/IDAHO/WASHINGTON
CITY           SKY/WX    TMP DP  RH WIND       PRES   REMARKS
GILLETTE       PTCLDY    48  30  50 S24G35    29.89S
SHERIDAN       PTCLDY    39  30  70 S5        29.84F WCI  35
CODY           PTCLDY    55  27  34 S3        29.86S
YELLOWSTONE LA PTCLDY    36  27  70 NW3       30.03S
SALMON         MOCLDY    52  37  57 S3        29.75R
MULLAN PASS    CLOUDY    43  36  76 VRB5      29.84S
SAND POINT     CLOUDY    48  48 100 CALM      29.80R
SPOKANE        MOCLDY    50  46  86 E6        29.78F
$$

REGIONAL REPORTS...ALBERTA
CITY           SKY/WX    TMP DP  RH WIND       PRES   REMARKS
CALGARY        MOCLDY    45  32  60 N9        29.63S
LETHBRIDGE     PTCLDY    48  36  63 SW12      29.65S
MEDICINE HAT   MOCLDY    50  37  61 W8        29.64S
EDMONTON       FOG       37  36  96 NW7       29.65S WCI  32
WATERTON GATE  N/A       55  30  39 SW10G17    N/A
CARDSTON       N/A       52  32  47 SW7        N/A
MILK RIVER     N/A       48  36  63 N2         N/A
$$

REGIONAL REPORTS...SASKATCHEWAN
CITY           SKY/WX    TMP DP  RH WIND       PRES   REMARKS
SWIFT CURRENT  CLEAR     43  34  71 S16G23    29.70F
REGINA         MOCLDY    39  27  62 SE24      29.87F WCI  28
VAL MARIE      N/A       36  30  79 SE2        N/A
ASSINIBOIA     N/A       43  30  60 SE14G22    N/A
CORONACH       N/A       41  30  65 SE10       N/A

$$




USA.gov is the U.S. government's official web portal to all federal, state and local government web resources and services.